YAOGAN-30 V

Last updated on Thu Nov 26 2020 00:02:02 GMT+0000 (Coordinated Universal Time)

1 46808U 20076B 20330.51490329 .00000294 00000-0 32800-4 0 9994 2 46808 34.9977 62.4503 0001884 53.4746 306.6133 14.89818472 4454
UTC large
Height (km)
Speed (km/s)
/
Latitude / Longitude
Inclination (degrees)
Orbital Period (minutes)
Azimuth
Elevation
Range (km)
Doppler Factor

Next 0 passes for location: London (51.5072 / 0.1276)

Sorry there are no passes over London.